sat.trackr.live / text

‹ back to catalog

STARLINK-5365

NORAD 55498 · 2023-015BB

PAYLOAD ACTIVE UNKNOWN

§ Identity

Operator
Country
US
Launch date
2023-02-02
Launch site
AFETR
Launch vehicle
Mass (kg)
RCS (m²)

Purposes: comms

External: N2YO · Heavens-Above · Gunter

§ Orbital elements

Epoch: 2026-05-24T19:27:00.904032Z

Period
94.27 min
Inclination
43.0027°
Eccentricity
0.0002054
Mean motion
15.27575971 rev/d
Perigee alt
481.7 km
Apogee alt
484.5 km
Semi-major
6,861.2 km
B*
1.4218e-5
RAAN
270.1158°
Arg perigee
277.9810°
Mean anomaly
82.0809°
Rev number
18,223

§ Raw data

STARLINK-53651 55498U 23015BB  26144.81042713  .00000129  00000+0  14218-4 0  99962 55498  43.0027 270.1158 0002054 277.9810  82.0809 15.27575971182230

JSON: /api/v1/satellites/55498 · /tle

For live sub-satellite position, see the globe view (requires WebGL).

§ Visibility from observer

Set your observer location to see the next 7 days of passes ≥ 10°. The values pass through the URL so the page stays shareable.

No JS? Fill the form by hand. The geolocation button needs JavaScript.